FW0202 Weather Reports


Display with metric or nautical units.
time (UTC)temp
F
wind
direction
speed
MPH
gust
MPH
rain 1hr
in
rain 24hr
in
rain mn
in
humidity
%
barometer
mb
20260510221755 60 168 5.0 7.0 0.00 0.20 0.12 98 1008.6
20260510221241 60 178 5.0 8.0 0.00 0.20 0.12 98 1008.7
20260510220735 60 162 5.0 8.0 0.00 0.20 0.12 98 1008.5
20260510220212 60 159 6.0 7.0 0.00 0.20 0.12 98 1008.4
20260510215707 60 174 6.0 6.0 0.00 0.20 0.12 98 1008.4
20260510215154 60 167 6.0 6.0 0.00 0.20 0.12 98 1008.2
20260510214912 60 163 6.0 6.0 0.00 0.20 0.12 98 1008.4
20260510214126 59 170 6.0 6.0 0.00 0.20 0.12 98 1008.3
20260510214101 59 178 5.0 6.0 0.00 0.20 0.12 98 1008.4
20260510213106 59 174 4.0 6.0 0.00 0.20 0.12 98 1008.4
20260510212553 59 163 6.0 6.0 0.00 0.20 0.12 98 1008.4
20260510212048 59 181 5.0 6.0 0.00 0.20 0.12 98 1008.2
20260510211802 59 171 5.0 6.0 0.00 0.20 0.12 98 1008.1
20260510211041 59 167 5.0 6.0 0.00 0.20 0.12 98 1008.2
20260510210548 59 167 5.0 6.0 0.00 0.20 0.12 98 1008.0
20260510210033 59 170 5.0 6.0 0.00 0.20 0.12 98 1008.0
20260510205533 59 175 6.0 6.0 0.00 0.20 0.12 98 1008.1
20260510205034 59 168 6.0 6.0 0.00 0.20 0.12 98 1008.0
20260510204529 59 177 5.0 6.0 0.00 0.20 0.12 98 1008.0
20260510204027 59 191 6.0 6.0 0.00 0.20 0.12 98 1007.9
20260510203522 59 165 5.0 6.0 0.00 0.20 0.12 98 1007.8
20260510203017 59 180 5.0 6.0 0.00 0.20 0.12 98 1007.7
20260510202738 58 172 5.0 6.0 0.00 0.20 0.12 98 1007.6
20260510202009 58 177 5.0 6.0 0.00 0.20 0.12 98 1007.5
20260510201455 58 174 5.0 6.0 0.00 0.20 0.12 98 1007.4
20260510200940 59 172 5.0 6.0 0.00 0.20 0.12 98 1007.4
20260510200436 59 175 5.0 6.0 0.01 0.20 0.12 98 1007.4
20260510195932 58 182 5.0 6.0 0.01 0.20 0.12 98 1007.3
20260510195643 58 177 4.0 6.0 0.02 0.19 0.11 98 1007.2
20260510194913 58 175 4.0 6.0 0.05 0.19 0.11 98 1007.2
20260510194409 58 179 5.0 6.0 0.06 0.19 0.11 98 1007.2
20260510193902 58 176 4.0 6.0 0.07 0.19 0.11 98 1007.2
20260510193402 59 175 5.0 6.0 0.09 0.19 0.11 98 1007.1
20260510192902 59 171 4.0 6.0 0.10 0.19 0.11 98 1007.1
20260510192401 59 165 5.0 6.0 0.11 0.19 0.11 98 1007.0
20260510191901 59 169 5.0 6.0 0.11 0.19 0.11 98 1007.0
20260510191355 59 176 5.0 6.0 0.11 0.19 0.11 98 1007.0
20260510190850 59 176 4.0 6.0 0.11 0.19 0.11 98 1007.1
20260510190346 59 185 5.0 6.0 0.10 0.19 0.11 98 1006.9
20260510185843 59 178 5.0 6.0 0.10 0.18 0.10 98 1006.9
20260510185318 59 180 4.0 6.0 0.09 0.17 0.09 98 1006.9
20260510184813 59 178 4.0 7.0 0.06 0.14 0.06 98 1006.7
20260510184538 59 164 6.0 7.0 0.05 0.13 0.05 98 1006.8
20260510183806 59 175 4.0 6.0 0.04 0.12 0.04 98 1006.8
20260510183302 59 177 5.0 6.0 0.02 0.10 0.02 98 1006.9
20260510182757 59 179 5.0 6.0 0.00 0.09 0.01 98 1006.8
20260510182253 58 173 5.0 6.0 0.00 0.09 0.01 98 1006.7
20260510181749 58 174 4.0 6.0 0.00 0.08 0.00 98 1006.7
20260510181246 58 178 5.0 6.0 0.00 0.08 0.00 98 1006.6
20260510180731 58 176 5.0 6.0 0.00 0.08 0.00 98 1006.6
20260510180228 58 180 4.0 6.0 0.00 0.08 0.00 98 1006.7
20260510175712 58 179 5.0 6.0 0.00 0.08 0.00 98 1006.5
20260510175208 58 178 4.0 6.0 0.00 0.08 0.00 98 1006.5
20260510174923 58 180 5.0 6.0 0.00 0.08 0.00 98 1006.7
20260510174411 58 176 5.0 6.0 0.00 0.08 0.00 98 1006.6
20260510173915 58 174 5.0 6.0 0.00 0.08 0.00 98 1006.7
20260510173342 58 172 5.0 6.0 0.00 0.08 0.00 98 1006.7
20260510172617 58 166 5.0 6.0 0.00 0.08 0.00 98 1006.8
20260510172113 58 180 4.0 5.0 0.00 0.08 0.00 98 1006.8
20260510171608 58 174 4.0 6.0 0.00 0.08 0.00 98 1006.6
20260510171326 58 171 5.0 6.0 0.00 0.08 0.00 98 1006.6
20260510170550 59 173 5.0 6.0 0.00 0.08 0.00 98 1006.7
20260510170036 59 170 5.0 6.0 0.00 0.08 0.00 98 1006.8
20260510165532 58 170 5.0 6.0 0.00 0.08 0.00 98 1006.6
20260510165027 59 177 5.0 6.0 0.00 0.08 0.00 98 1006.9
20260510164526 59 168 4.0 6.0 0.00 0.08 0.00 98 1006.8
20260510164027 59 176 5.0 6.0 0.00 0.08 0.00 98 1006.9
20260510163525 58 170 5.0 6.0 0.00 0.08 0.00 98 1006.9
20260510163011 59 179 5.0 6.0 0.00 0.08 0.00 98 1006.9
20260510162733 59 183 4.0 6.0 0.00 0.08 0.00 98 1007.2
20260510162229 58 176 5.0 6.0 0.00 0.08 0.00 98 1007.0
20260510161457 59 180 5.0 6.0 0.00 0.08 0.00 98 1007.1
20260510161006 59 169 6.0 6.0 0.00 0.08 0.00 98 1007.0
20260510160449 59 178 5.0 6.0 0.00 0.08 0.00 98 1007.0
20260510155945 59 179 4.0 6.0 0.00 0.08 0.00 98 1007.0
20260510155441 59 185 5.0 6.0 0.00 0.08 0.00 97 1007.2
20260510154936 59 195 5.0 6.0 0.00 0.08 0.00 98 1007.0
20260510154641 59 177 4.0 6.0 0.00 0.08 0.00 97 1007.0
20260510153919 59 177 5.0 6.0 0.00 0.08 0.00 98 1006.9
20260510153636 59 171 5.0 6.0 0.00 0.08 0.00 97 1007.1
20260510152910 59 172 5.0 6.0 0.00 0.08 0.00 97 1007.1
20260510152356 59 178 5.0 6.0 0.00 0.08 0.00 97 1007.1
20260510151851 58 178 5.0 6.0 0.00 0.08 0.00 97 1007.3
20260510151611 59 177 5.0 6.0 0.00 0.08 0.00 97 1007.1
20260510150843 59 181 5.0 6.0 0.00 0.08 0.00 97 1007.2
20260510150339 59 170 5.0 6.0 0.00 0.08 0.00 97 1007.2
20260510145823 59 174 5.0 6.0 0.00 0.08 0.00 97 1007.2
20260510145812 59 174 5.0 6.0 0.00 0.08 0.00 97 1007.3
20260510144823 60 174 5.0 6.0 0.00 0.08 0.00 97 1007.4
20260510144312 60 165 5.0 6.0 0.00 0.08 0.00 97 1007.5
20260510143757 60 175 5.0 6.0 0.00 0.08 0.00 97 1007.6
20260510143253 60 180 4.0 6.0 0.00 0.08 0.00 97 1007.6
20260510142729 60 177 4.0 6.0 0.01 0.08 0.00 97 1007.6
20260510142214 60 174 5.0 6.0 0.01 0.08 0.00 97 1007.5
20260510141701 60 186 5.0 6.0 0.01 0.08 0.00 97 1007.5
20260510141156 60 177 4.0 6.0 0.01 0.08 0.00 97 1007.5
20260510140651 60 178 5.0 6.0 0.01 0.08 0.00 97 1007.3
20260510140154 60 175 5.0 6.0 0.02 0.08 0.00 97 1007.3
20260510135653 60 179 5.0 6.0 0.02 0.08 0.08 97 1007.1
20260510135140 60 176 5.0 6.0 0.02 0.08 0.08 97 1007.4
20260510134626 60 181 5.0 6.0 0.02 0.08 0.08 97 1007.2
20260510134122 60 177 5.0 6.0 0.02 0.08 0.08 97 1007.2
20260510133841 60 189 6.0 6.0 0.02 0.08 0.08 97 1007.4
20260510133113 60 177 6.0 6.0 0.02 0.07 0.07 97 1007.6
20260510132559 60 176 5.0 6.0 0.01 0.07 0.07 97 1007.6
20260510132053 60 174 5.0 6.0 0.05 0.07 0.07 97 1007.5
20260510131550 60 192 5.0 6.0 0.05 0.07 0.07 97 1007.6
20260510131035 60 180 5.0 6.0 0.05 0.07 0.07 97 1007.5
20260510130532 60 173 5.0 6.0 0.04 0.06 0.06 97 1007.6
20260510130240 60 193 6.0 6.0 0.04 0.06 0.06 97 1007.7
20260510125527 60 177 5.0 6.0 0.04 0.06 0.06 96 1007.7
20260510124947 60 174 5.0 6.0 0.04 0.06 0.06 96 1007.7
20260510124446 60 180 5.0 6.0 0.04 0.06 0.06 96 1007.8
20260510123940 60 173 5.0 6.0 0.04 0.06 0.06 96 1007.8
20260510123436 60 173 5.0 6.0 0.04 0.06 0.06 96 1007.9
20260510122911 60 180 5.0 6.0 0.04 0.06 0.06 96 1007.9
20260510122408 60 170 5.0 7.0 0.04 0.06 0.06 96 1008.0
20260510121853 60 178 4.0 7.0 0.00 0.02 0.02 96 1008.0
20260510121614 60 191 5.0 6.0 0.00 0.02 0.02 96 1008.1
20260510121300 60 177 5.0 6.0 0.00 0.02 0.02 96 1008.1
20260510120310 60 179 5.0 6.0 0.00 0.02 0.02 96 1008.1
20260510115756 60 182 5.0 6.0 0.00 0.02 0.02 96 1007.9
20260510115254 60 185 5.0 6.0 0.00 0.02 0.02 96 1008.1
20260510114748 61 187 5.0 7.0 0.00 0.02 0.02 96 1008.3
20260510114245 61 183 5.0 7.0 0.00 0.02 0.02 96 1008.4
20260510113739 61 178 6.0 6.0 0.00 0.02 0.02 96 1008.2
20260510113501 61 182 5.0 6.0 0.00 0.02 0.02 95 1008.3
20260510112730 61 174 5.0 6.0 0.00 0.02 0.02 95 1008.3
20260510112227 61 172 5.0 6.0 0.00 0.02 0.02 95 1008.0
20260510111711 61 170 5.0 6.0 0.00 0.02 0.02 95 1008.2
20260510111208 61 176 5.0 6.0 0.00 0.02 0.02 95 1008.0
20260510110654 61 186 5.0 6.0 0.00 0.02 0.02 95 1008.0
20260510110154 61 187 5.0 6.0 0.00 0.02 0.02 95 1008.0
20260510105909 61 176 5.0 6.0 0.00 0.02 0.02 95 1008.0
20260510105143 61 170 5.0 6.0 0.00 0.02 0.02 95 1007.9
20260510104616 61 165 5.0 6.0 0.00 0.02 0.02 94 1007.9
20260510104113 61 170 4.0 6.0 0.00 0.02 0.02 94 1008.2
20260510103608 61 170 5.0 6.0 0.00 0.02 0.02 94 1008.0
20260510103054 61 172 5.0 6.0 0.00 0.02 0.02 94 1007.9
20260510102539 61 180 4.0 6.0 0.00 0.02 0.02 94 1007.9
20260510102037 61 177 4.0 5.0 0.00 0.02 0.02 93 1007.6
20260510101532 61 173 5.0 5.0 0.00 0.02 0.02 93 1007.7
20260510101251 61 182 5.0 6.0 0.00 0.02 0.02 93 1007.6
20260510100513 61 175 5.0 6.0 0.00 0.02 0.02 93 1007.8
20260510100010 61 179 5.0 6.0 0.00 0.02 0.02 93 1007.8
20260510095454 62 187 5.0 6.0 0.00 0.02 0.02 93 1007.7
20260510094945 62 175 4.0 5.0 0.00 0.02 0.02 93 1007.6
20260510094705 62 175 5.0 6.0 0.00 0.02 0.02 93 1007.5
20260510093912 62 181 5.0 6.0 0.00 0.02 0.02 93 1007.6
20260510093408 62 182 4.0 6.0 0.00 0.02 0.02 93 1007.6
20260510092904 62 187 5.0 6.0 0.00 0.02 0.02 93 1007.4
20260510092616 62 182 5.0 6.0 0.00 0.02 0.02 93 1007.3
20260510091856 62 174 5.0 6.0 0.00 0.02 0.02 93 1007.4
20260510091352 62 176 5.0 6.0 0.00 0.02 0.02 93 1007.1
20260510090844 62 180 4.0 6.0 0.00 0.02 0.02 93 1007.3
20260510090323 62 178 4.0 6.0 0.00 0.02 0.02 93 1007.2
20260510085819 62 184 4.0 6.0 0.00 0.02 0.02 93 1007.2
20260510085314 62 172 4.0 6.0 0.00 0.02 0.02 92 1007.1
20260510084810 62 182 4.0 6.0 0.00 0.02 0.02 92 1007.0
20260510084306 62 173 4.0 6.0 0.00 0.02 0.02 92 1007.2
20260510083745 62 177 5.0 6.0 0.00 0.02 0.02 92 1007.2
20260510083503 62 179 5.0 6.0 0.00 0.02 0.02 92 1007.2
20260510082937 62 178 5.0 6.0 0.00 0.02 0.02 91 1007.0
20260510082421 62 187 5.0 6.0 0.00 0.02 0.02 91 1007.2
20260510081654 63 186 5.0 6.0 0.00 0.02 0.02 91 1007.2
20260510081150 63 176 5.0 6.0 0.00 0.02 0.02 90 1007.2
20260510081129 63 182 4.0 6.0 0.00 0.02 0.02 90 1007.1
20260510080142 63 170 5.0 7.0 0.00 0.02 0.02 90 1006.8
20260510075629 63 164 5.0 7.0 0.00 0.02 0.02 90 1006.8
20260510075114 63 181 4.0 6.0 0.00 0.02 0.02 90 1006.9
20260510074609 63 173 4.0 6.0 0.00 0.02 0.02 89 1006.8
20260510074105 63 185 4.0 6.0 0.00 0.02 0.02 89 1006.8
20260510073551 63 179 5.0 7.0 0.00 0.02 0.02 89 1006.7
20260510073047 64 179 4.0 7.0 0.00 0.02 0.02 87 1006.6
20260510072541 64 190 4.0 6.0 0.00 0.02 0.02 86 1006.6
20260510072018 64 178 5.0 6.0 0.00 0.02 0.02 85 1006.5
20260510071737 64 183 5.0 6.0 0.00 0.02 0.02 85 1006.4
20260510071000 64 179 4.0 6.0 0.00 0.02 0.02 84 1006.3
20260510070456 64 179 4.0 6.0 0.00 0.02 0.02 84 1006.3
20260510065953 64 177 5.0 6.0 0.00 0.02 0.02 85 1006.4
20260510065448 64 179 4.0 6.0 0.00 0.02 0.02 85 1006.1
20260510064933 64 175 5.0 6.0 0.00 0.02 0.02 84 1006.1
20260510064430 65 180 5.0 6.0 0.00 0.02 0.02 85 1005.9
20260510063915 65 171 4.0 6.0 0.00 0.02 0.02 85 1006.0
20260510063413 65 182 4.0 6.0 0.00 0.02 0.02 85 1005.8
20260510062856 65 179 4.0 6.0 0.00 0.02 0.02 85 1005.7
20260510062352 65 181 5.0 6.0 0.00 0.02 0.02 84 1005.5
20260510062336 65 188 5.0 6.0 0.00 0.02 0.02 83 1005.4
20260510061344 65 179 5.0 6.0 0.00 0.02 0.02 83 1005.4
20260510060839 66 180 5.0 6.0 0.00 0.02 0.02 83 1005.3
20260510060326 66 192 5.0 6.0 0.00 0.02 0.02 82 1005.4
20260510055811 66 180 4.0 6.0 0.00 0.02 0.02 83 1005.4
20260510055307 66 178 4.0 6.0 0.00 0.02 0.02 85 1005.5
20260510054752 66 189 5.0 6.0 0.00 0.02 0.02 84 1005.2
20260510054248 66 181 4.0 6.0 0.00 0.02 0.02 83 1005.6
20260510054012 66 174 5.0 6.0 0.00 0.02 0.02 84 1005.4
20260510053504 66 186 4.0 6.0 0.00 0.02 0.02 84 1005.4
20260510052738 67 189 3.0 6.0 0.00 0.02 0.02 83 1005.5
20260510052505 67 191 5.0 6.0 0.00 0.02 0.02 81 1005.5
20260510051718 67 190 5.0 7.0 0.00 0.02 0.02 81 1005.4
20260510051214 67 183 4.0 7.0 0.00 0.02 0.02 81 1005.5
20260510050659 67 177 5.0 7.0 0.00 0.02 0.02 81 1005.6
20260510050155 67 184 5.0 7.0 0.00 0.02 0.02 82 1005.8
20260510045651 66 186 4.0 7.0 0.00 0.02 0.02 82 1005.7
20260510045146 66 198 5.0 8.0 0.00 0.02 0.02 81 1005.8
20260510044633 67 184 4.0 8.0 0.00 0.02 0.02 82 1005.7
20260510044118 67 173 4.0 8.0 0.00 0.02 0.02 82 1005.7
20260510043613 67 174 5.0 8.0 0.00 0.02 0.02 82 1005.6
20260510043301 67 193 4.0 7.0 0.00 0.02 0.02 83 1005.7
20260510042051 66 177 4.0 6.0 0.00 0.02 0.02 83 1005.5
20260510041547 66 198 5.0 6.0 0.00 0.02 0.02 82 1005.5
20260510041012 66 181 4.0 8.0 0.00 0.02 0.02 82 1005.7
20260510040731 66 198 5.0 8.0 0.00 0.02 0.02 83 1005.6
20260510040004 65 186 5.0 8.0 0.00 0.02 0.02 84 1005.7
20260510035452 65 185 4.0 8.0 0.00 0.02 0.02 85 1005.7
20260510034949 65 195 4.0 6.0 0.00 0.02 0.02 84 1005.9
20260510034705 65 179 4.0 6.0 0.00 0.02 0.02 84 1005.6
20260510033917 65 200 6.0 6.0 0.00 0.02 0.02 86 1005.9
20260510033413 65 189 4.0 7.0 0.00 0.02 0.02 86 1005.8
20260510032908 65 183 4.0 7.0 0.00 0.02 0.02 86 1006.0
20260510032405 64 173 4.0 8.0 0.00 0.02 0.02 86 1005.9
20260510031906 64 208 6.0 8.0 0.00 0.02 0.02 87 1005.9
20260510031406 64 181 5.0 8.0 0.00 0.02 0.02 86 1006.0
20260510030852 64 208 6.0 8.0 0.00 0.02 0.02 86 1005.7
20260510030318 64 180 5.0 7.0 0.00 0.02 0.02 87 1006.1
20260510025813 64 191 4.0 7.0 0.00 0.02 0.02 88 1005.9
20260510025310 64 185 4.0 7.0 0.00 0.02 0.02 88 1006.1
20260510024805 63 191 6.0 6.0 0.00 0.02 0.02 88 1006.2
20260510024251 63 179 4.0 6.0 0.00 0.02 0.02 89 1006.2
20260510023738 63 179 4.0 6.0 0.00 0.02 0.02 89 1006.3
20260510023232 63 185 4.0 6.0 0.00 0.02 0.02 91 1006.3
20260510022718 62 192 5.0 7.0 0.00 0.02 0.02 91 1006.2
20260510022213 62 180 4.0 7.0 0.01 0.02 0.02 91 1006.2
20260510021710 62 187 5.0 7.0 0.01 0.02 0.02 91 1006.5
20260510021206 62 180 5.0 8.0 0.01 0.02 0.02 92 1006.5
20260510020651 61 179 4.0 8.0 0.01 0.02 0.02 92 1006.6
20260510020138 62 191 5.0 7.0 0.01 0.02 0.02 92 1006.7
20260510015624 62 189 4.0 7.0 0.01 0.02 0.02 91 1006.7
20260510015120 62 193 4.0 7.0 0.01 0.02 0.02 91 1006.9
20260510014615 62 202 6.0 6.0 0.01 0.01 0.01 90 1007.0
20260510014333 62 167 6.0 6.0 0.01 0.01 0.01 90 1007.3
20260510013606 62 180 5.0 6.0 0.01 0.01 0.01 89 1007.3
20260510013328 62 176 4.0 6.0 0.01 0.01 0.01 89 1007.4
20260510012559 63 166 4.0 6.0 0.01 0.01 0.01 90 1007.4
20260510012043 62 180 4.0 6.0 0.00 0.01 0.01 89 1007.5
20260510011804 63 164 4.0 6.0 0.00 0.01 0.01 88 1007.6
20260510011038 63 172 5.0 6.0 0.00 0.00 0.00 87 1007.7
20260510010739 64 168 5.0 6.0 0.00 0.00 0.00 85 1007.7
20260510010017 64 177 4.0 6.0 0.00 0.00 0.00 85 1007.6
20260510005736 64 162 4.0 6.0 0.00 0.00 0.00 84 1007.5
20260510004950 65 180 5.0 6.0 0.00 0.00 0.00 84 1007.7
20260510004445 64 177 4.0 6.0 0.00 0.00 0.00 83 1007.7
20260510003941 64 178 5.0 6.0 0.00 0.00 0.00 86 1007.7
20260510003417 63 175 5.0 6.0 0.00 0.00 0.00 88 1007.7
20260510002912 62 181 4.0 6.0 0.00 0.00 0.00 89 1007.8
20260510002408 62 167 5.0 6.0 0.00 0.00 0.00 89 1007.8
20260510001843 62 182 5.0 6.0 0.00 0.00 0.00 89 1007.9
20260510001603 62 180 4.0 6.0 0.00 0.00 0.00 89 1007.8
20260510000836 62 176 4.0 6.0 0.00 0.00 0.00 89 1007.8
20260510000330 62 178 4.0 6.0 0.00 0.00 0.00 89 1007.6
20260509235829 62 201 5.0 6.0 0.00 0.00 0.00 89 1007.4
20260509235329 62 183 4.0 6.0 0.00 0.00 0.00 89 1007.3
20260509234829 61 177 5.0 6.0 0.00 0.00 0.00 90 1007.3
20260509234556 61 178 4.0 6.0 0.00 0.00 0.00 90 1007.4
20260509233821 60 171 4.0 6.0 0.00 0.00 0.00 90 1007.4
20260509233538 60 166 5.0 6.0 0.00 0.00 0.00 89 1007.3
20260509232812 60 173 5.0 6.0 0.00 0.00 0.00 88 1007.1
20260509232308 60 165 5.0 7.0 0.00 0.00 0.00 87 1007.4
20260509232022 61 162 4.0 7.0 0.00 0.00 0.00 85 1007.5
20260509231300 62 161 5.0 6.0 0.00 0.00 0.00 82 1007.3
20260509230759 63 169 4.0 6.0 0.00 0.00 0.00 80 1007.0
20260509230243 64 163 5.0 6.0 0.00 0.00 0.00 77 1007.0
20260509225738 65 175 4.0 6.0 0.00 0.00 0.00 77 1007.0
20260509225234 66 161 5.0 6.0 0.00 0.00 0.00 75 1007.0
20260509224958 67 180 4.0 6.0 0.00 0.00 0.00 75 1006.7
20260509224227 68 189 4.0 5.0 0.00 0.00 0.00 74 1006.8
20260509224201 66 169 4.0 6.0 0.00 0.00 0.00 76 1006.7
20260509223157 65 166 4.0 6.0 0.00 0.00 0.00 78 1006.7
20260509222658 65 169 4.0 6.0 0.00 0.00 0.00 79 1006.8